Change the Weather History Date:

Wednesday, August 21, 2013

  Actual Average Record
Temperature  
Mean Temperature 73 °F 68 °F  
Max Temperature 86 °F 86 °F 95 °F (1949)
Min Temperature 60 °F 51 °F 40 °F (1966)
Degree Days  
Heating Degree Days 0 1  
Month to date heating degree days 0 12  
Since 1 June heating degree days 72 164  
Since 1 July heating degree days 0 28  
Cooling Degree Days 8 4  
Month to date cooling degree days 123 120  
Year to date cooling degree days 446 365  
Since 1 June cooling degree days 436 361  
Growing Degree Days 23 (Base 50)    
Moisture  
Dew Point 49 °F    
Average Humidity 47    
Maximum Humidity 73    
Minimum Humidity 20    
Precipitation  
Precipitation T in 0.02 in 0.28 in (1987)
Month to date precipitation 0.68 0.62  
Year to date precipitation 9.18 8.85  
Snow  
Snow 0.00 in 0.00 in - ()
Month to date snowfall 0.0 0.0  
Since 1 June snowfall 0.0 0.1  
Since 1 July snowfall 0.0 0.0  
Snow Depth 0.00 in    
Sea Level Pressure  
Sea Level Pressure 29.97 in    
Wind  
Wind Speed 7 mph (WSW)    
Max Wind Speed 16 mph    
Max Gust Speed 21 mph    
Visibility 10 miles    
Events      
T = Trace of Precipitation, MM = Missing Value Source: NWS Daily Summary

Daily Weather History Graph

Daily Weather History Graph

Search for Another Location

Airport or City:

Trip Planner

Search our weather history database for the weather conditions in past years. The results will help you decide how hot, cold, wet, or windy it might be!

Date:

Astronomy

Aug. 21, 2013 Rise Set
Actual Time 6:18 AM MDT 7:58 PM MDT
Civil Twilight 5:48 AM MDT 8:28 PM MDT
Nautical Twilight 5:12 AM MDT 9:04 PM MDT
Astronomical Twilight 4:33 AM MDT 9:43 PM MDT
Moon 8:05 PM MDT (8/21) 7:04 AM MDT (8/21)
Length of Visible Light 14h 39m
Length of Day
13h 39m
Full, 99% of the Moon is Illuminated
Aug 21
Full
Aug 28
Last Quarter
Sep 5
New
Sep 12
First Quarter
Sep 19
Full

Hourly Weather History & Observations

Time (MDT) Temp. Dew Point Humidity Pressure Visibility Wind Dir Wind Speed Gust Speed Precip Events Conditions
12:53 AM 66.9 °F 54.0 °F 63% 29.93 in 10.0 mi ESE 8.1 mph - N/A   Scattered Clouds
1:53 AM 64.0 °F 55.9 °F 75% 29.92 in 10.0 mi Calm Calm - 0.00 in   Mostly Cloudy
2:53 AM 66.9 °F 54.0 °F 63% 29.91 in 10.0 mi SW 4.6 mph - N/A   Overcast
3:53 AM 64.9 °F 53.1 °F 65% 29.89 in 10.0 mi WSW 6.9 mph - N/A   Scattered Clouds
4:53 AM 63.0 °F 54.0 °F 72% 29.90 in 10.0 mi SSW 4.6 mph - N/A   Clear
5:53 AM 63.0 °F 52.0 °F 67% 29.90 in 10.0 mi WSW 3.5 mph - N/A   Partly Cloudy
6:53 AM 62.1 °F 52.0 °F 70% 29.94 in 10.0 mi WSW 6.9 mph - N/A   Mostly Cloudy
7:53 AM 68.0 °F 52.0 °F 56% 29.94 in 10.0 mi SSW 8.1 mph - N/A   Overcast
8:53 AM 72.0 °F 53.1 °F 51% 29.94 in 10.0 mi SSW 11.5 mph - N/A   Partly Cloudy
9:53 AM 75.9 °F 52.0 °F 43% 29.93 in 10.0 mi SW 12.7 mph - N/A   Partly Cloudy
10:53 AM 75.0 °F 52.0 °F 44% 29.96 in 10.0 mi SSW 12.7 mph - N/A   Overcast
11:53 AM 77.0 °F 52.0 °F 42% 29.96 in 10.0 mi SSW 10.4 mph - N/A   Overcast
12:53 PM 79.0 °F 51.1 °F 38% 29.97 in 10.0 mi SSW 3.5 mph - N/A   Mostly Cloudy
1:53 PM 81.0 °F 48.9 °F 33% 29.96 in 10.0 mi Calm Calm - N/A   Partly Cloudy
2:53 PM 82.0 °F 48.9 °F 31% 29.93 in 10.0 mi Calm Calm - N/A   Scattered Clouds
3:53 PM 82.0 °F 48.0 °F 30% 29.93 in 10.0 mi North 5.8 mph - N/A   Overcast
4:53 PM 84.0 °F 39.9 °F 21% 29.92 in 10.0 mi Variable 3.5 mph - N/A   Mostly Cloudy
5:53 PM 84.0 °F 41.0 °F 22% 29.91 in 10.0 mi North 5.8 mph - N/A   Clear
6:53 PM 82.0 °F 42.1 °F 24% 29.91 in 10.0 mi NNE 6.9 mph - N/A   Clear
7:53 PM 77.0 °F 44.1 °F 31% 29.94 in 10.0 mi NNE 9.2 mph - N/A   Partly Cloudy
7:55 PM 76.1 °F 37.4 °F 25% 30.28 in 10.0 mi WNW 13.8 mph - N/A   Scattered Clouds
8:15 PM 73.8 °F 36.9 °F 26% 30.29 in 10.0 mi WNW 10.4 mph - N/A   Clear
8:35 PM 71.2 °F 36.9 °F 28% 30.30 in 10.0 mi WNW 5.8 mph - N/A   Clear
8:53 PM 73.0 °F 48.9 °F 42% 29.98 in 10.0 mi South 8.1 mph - N/A   Mostly Cloudy
9:53 PM 71.1 °F 51.1 °F 49% 29.98 in 10.0 mi WSW 11.5 mph - N/A   Partly Cloudy
10:53 PM 69.1 °F 51.1 °F 53% 30.00 in 10.0 mi SW 11.5 mph - N/A   Overcast
11:53 PM 66.0 °F 53.1 °F 63% 30.00 in 10.0 mi WSW 5.8 mph - N/A   Clear